Regional Weather Roundup
Issued by NWS Charleston, SC

Current Version | Previous Version | Graphics & Text | Print | Product List | Glossary On
Versions: 1 2 3 4 5 6 7 8 9 10 11 12 13 14 15 16 17 18 19 20 21 22 23 24 25 26 27 28 29 30 31 32 33 34 35 36 37 38 39 40 41 42 43 44 45 46 47 48 49 50
000
ASUS42 KCHS 131810
RWRCHS

REGIONAL WEATHER ROUNDUP
NATIONAL WEATHER SERVICE CHARLESTON SC
200 PM EDT SUN JUL 13 2014

NOTE: "FAIR" INDICATES FEW OR NO CLOUDS BELOW 12,000 FEET WITH NO
SIGNIFICANT WEATHER AND/OR OBSTRUCTIONS TO VISIBILITY.

NOT ALL STATIONS ARE QUALITY CONTROLLED BY THE NATIONAL
WEATHER SERVICE. USE DATA WITH CAUTION...ESPECIALLY
DEWPOINT OBSERVATIONS.

SCZ027-030-031-034>040-042>050-131900-
...SOUTH CAROLINA...

CITY           SKY/WX    TMP DP  RH WIND       PRES   REMARKS
N CHARLESTON   LGT RAIN  79  74  84 CALM      30.13F
6HR MIN TEMP:  76; 6HR MAX TEMP:  88; 6HR PCP:  1.01;

WATERFRONT PRK   N/A     77 N/A N/A N6          N/A
FORT JOHNSON   NOT AVBL
MOUNT PLEASANT DRIZZLE   77  75  94 N5        30.13F
JOHNS ISLAND   CLEAR     79  68  69 CALM      30.13F
PINOPOLIS      NOT AVBL
MONCKS CORNER  RAIN      77  75  94 S5        30.14S
SUMMERVILLE    DRIZZLE   77  73  88 SE3       30.15F
BEAUFORT MCAS  CLOUDY    81  71  71 E3        30.13F
6HR MIN TEMP:  75; 6HR MAX TEMP:  81; 6HR PCP:  0.40;

BEAUFORT ARPT  FAIR      79  72  78 CALM      30.13F
HILTON HEAD IS PTSUNNY   81  72  74 NE3       30.14F
GEORGETOWN     NOT AVBL
WALTERBORO     MOCLDY    81  72  74 S6        30.14F
ORANGEBURG     MOSUNNY   89  66  46 SW7       30.11F HX  91
6HR MIN TEMP:  77; 6HR MAX TEMP:  90;

BARNWELL       FAIR      90  70  51 SW7       30.12F HX  95
AIKEN          FAIR      90  72  55 SW7       30.16F HX  96
MANNING        FAIR      90  72  55 SE5       30.11F HX  96
KINGSTREE      NOT AVBL
COLUMBIA       PTSUNNY   91  64  40 VRB5      30.10F HX  92
6HR MIN TEMP:  76; 6HR MAX TEMP:  92;

SUMTER         MOSUNNY   90  70  51 S8        30.10F HX  94
6HR MIN TEMP:  75; 6HR MAX TEMP:  91;

FLORENCE       PTSUNNY   89  68  49 SW9       30.11F HX  93
6HR MIN TEMP:  75; 6HR MAX TEMP:  90;

MYRTLE BEACH   MOSUNNY   84  73  70 S13       30.13F HX  91
N MYRTLE BEACH MOSUNNY   84  73  69 S10       30.12F HX  90
6HR MIN TEMP:  77; 6HR MAX TEMP:  84;


$$

GAZ063-065-086>088-099>101-113>116-118-119-134-136>141-150-131900-
...GEORGIA...

CITY           SKY/WX    TMP DP  RH WIND       PRES   REMARKS
SAVANNAH ARPT  PTSUNNY   85  72  65 CALM      30.12F HX  91
6HR MIN TEMP:  74; 6HR MAX TEMP:  85; 6HR PCP: TRACE;

HUNTER AAF     CLOUDY    83  73  71 N5        30.11S HX  90
6HR MIN TEMP:  73; 6HR MAX TEMP:  84; 6HR PCP:  0.02;

FORT STEWART   CLOUDY    85  74  70 VRB2      30.11F HX  92
6HR MIN TEMP:  74; 6HR MAX TEMP:  85; 6HR PCP:  0.37;

STATESBORO     NOT AVBL
SYLVANIA       PTCLDY    87  75  67 S6        30.13F HX  96
CLAXTON        MOCLDY    88  72  58 SW3       30.11F HX  94
THOMSON        MOSUNNY   89  74  59 CALM      30.17F HX  98
AUGUSTA-BUSH   PTSUNNY   90  69  50 VRB3      30.11F HX  94
6HR MIN TEMP:  72; 6HR MAX TEMP:  90;

AUGUSTA-DANIEL MOSUNNY   91  67  44 E5        30.13F HX  94
SWAINSBORO     FAIR      90  73  58 CALM      30.12F HX  98
VIDALIA          N/A     86  72  62 SW3       30.12F HX  92
ALMA           PTSUNNY   86  69  56 SW6       30.12F HX  90
6HR MIN TEMP:  71; 6HR MAX TEMP:  88;

WAYCROSS       MOSUNNY   90  73  57 W5        30.12F HX  99
JESUP          NOT AVBL
BRUNSWICK      PTSUNNY   86  72  62 CALM      30.13F HX  92
SAINT SIMONS   CLOUDY    83  73  72 CALM      30.13F
6HR MIN TEMP:  74; 6HR MAX TEMP:  83;


$$

SCZ027-028-034-036>038-045-046-048>050-GAZ119-141-131900-
...LAKE AND SUPPLEMENTAL COASTAL OBSERVATIONS...

STATION/POSITION TIME  TEMP    WIND        PRES    WAVE   SWELL
                       AIR SEA DIR/SP/G            HT/PER HT/PER/DIR
                 (UTC) (F)     (DEG/KT/KT) (MB)    (FT/S) (FT/S/D)
UPR LAKE MARION  NOT AVBL
WINYAH BAY       1700   82     130/ 10     1021.0S
LAKE MURRAY      1700   89     160/  2/  3 1019.3F
ACE BASIN NERRS  1700   76      30/  1     1021.0S
FORT PULASKI     1800   79 77   80/  5/  6   N/A
SAPELO ISLAND    1700   84     350/  5     1021.0S

$$

ANZ835-935-AMZ111-154-330-350-352-354-374-450-454-472-131900-
...C-MAN AND BUOY OBSERVATIONS...

STATION/POSITION TIME  TEMP    WIND        PRES    WAVE   SWELL
                       AIR SEA DIR/SP/G            HT/PER HT/PER/DIR
                 (UTC) (F)     (DEG/KT/KT) (MB)    (FT/S) (FT/S/D)
FOLLY BEACH CMAN 1700   74     340/  4/  6 1021.5F
BUOY 41004       1800   78 82  180/  2/  4 1020.1F   2/ 7   2/ 7
BUOY 41008       1800   79 84   50/  6/  8 1020.4F   1/ 7   2/110/ 7
5E ST. MARYS GA  1800      83                N/A     2/ 8
FRYING PAN BUOY  NOT AVBL
BUOY 41025       1800          VRB  4/  6  1020.6F   2/ 8   2/160/ 8
CAPE LOOKOUT NC  1700   81     140/  5/  7 1020.8F
BUOY 41002       1724   82 86   CALM  /  2 1022.0F   2/ 8   2/130/ 8
BUOY 41010       1800   83 85  150/  4/  6 1020.8F   3/ 7   3/120/ 7
BUOY 41012       NOT AVBL
ST AUGUSTINE FL  1800   77     300/  7/  9 1021.2F
CAPERS NEARSHORE 1700   78     210/ 10/ 12   N/A
FRIPP NEARSHORE  1700   80      30/  6/  8   N/A


$$



USA.gov is the U.S. government's official web portal to all federal, state and local government web resources and services.